SCP
0 0 0 0 0 0 0 0 0 0 0 0 0 0 0 0 0 0 0 0 0 0 0 0 1 1 1 1 1 1 1 1 1 1 0 0 0 0 0 0 0 0 0
0 0 0 0 0 0 0 0 0 0 0 0 0 0 0 0 0 0 0 0 0 0 0 0 1 1 1 1 1 1 1 1 1 1 1 1 1 0 0 0 0 0 0
0 0 0 0 0 0 0 0 0 0 0 0 0 0 0 0 0 0 0 0 0 0 1 1 1 2 1 1 1 2 2 1 1 1 1 1 1 0 0 0 0 0 0
0 0 0 0 0 0 0 0 0 0 0 0 0 0 0 0 0 0 0 0 0 0 0 0 1 1 1 1 1 1 1 1 1 1 1 1 1 0 0 0 0 0 0
0 0 0 0 0 0 0 0 0 0 0 0 0 0 1 1 1 0 1 1 1 0 0 0 1 1 1 1 1 1 0 1 1 1 1 1 1 1 0 1 1 0 0
0 0 0 0 0 0 0 0 0 0 0 0 1 0 0 0 0 0 0 0 0 0 0 0 0 1 0 1 1 0 1 1 1 1 1 1 1 1 1 1 0 0 0
0 0 0 0 0 0 0 0 0 0 0 0 0 0 0 0 0 0 0 0 0 0 0 0 0 0 0 1 1 1 1 1 1 1 1 1 1 1 1 1 1 0 0
0 0 0 0 0 0 0 0 0 0 0 0 0 0 0 0 0 0 0 0 0 0 0 0 0 0 0 0 0 1 1 1 1 1 1 1 1 1 1 0 0 0 0
0 0 0 0 0 0 0 0 0 0 0 0 0 0 0 0 0 0 0 0 0 0 0 0 0 0 0 0 0 0 0 0 0 1 1 1 1 1 0 1 1 0 0
0 0 0 0 0 0 0 0 0 0 0 0 0 0 0 0 0 0 0 0 0 0 0 0 -0 0 0 0 0 0 0 0 0 0 1 1 1 1 1 1 1 0 0
0 0 0 0 0 0 0 0 0 0 0 0 0 0 0 0 0 0 0 0 0 -0 0 -0 -0 -0 0 0 0 0 0 0 0 0 0 1 1 1 1 1 0 0 0
0 0 0 0 0 0 0 0 0 0 0 0 0 0 0 0 0 0 0 0 0 -0 -0 -0 -0 -0 0 0 0 0 0 0 0 0 0 0 0 0 1 0 0 0 0
0 0 0 0 0 0 0 0 0 0 0 0 0 0 0 0 0 0 0 -0 -0 -0 -0 -0 -0 0 0 0 0 0 0 0 0 0 0 0 0 0 0 0 0 0 0
0 0 0 0 0 0 0 0 0 0 0 0 0 0 0 -0 -0 -0 -0 -0 -0 -0 0 0 0 0 0 0 0 0 0 0 0 0 0 0 0 0 0 0 0 0 0
0 0 0 0 0 0 0 0 0 0 0 0 0 0 0 -0 -0 -0 0 0 0 0 0 0 0 0 0 0 0 0 0 0 0 0 0 0 0 0 0 0 0 0 0
0 0 0 0 0 0 0 0 0 0 0 0 -0 -0 0 -0 -0 0 0 0 0 0 0 0 0 0 0 0 0 0 0 0 0 0 0 0 0 0 0 0 0 0 0
0 0 0 0 0 0 0 0 0 0 0 -0 -0 -0 -0 -0 0 0 0 0 0 0 0 0 0 0 0 0 0 0 0 0 0 0 0 0 0 0 0 0 0 0 0
0 0 0 0 0 0 0 0 0 0 0 0 0 0 -0 0 0 0 0 0 0 0 0 0 0 0 0 0 0 0 0 0 0 0 0 0 0 0 0 0 0 0 -0
0 0 0 0 0 0 0 0 0 0 0 0 0 0 0 0 0 0 0 0 0 0 0 0 0 0 0 0 0 0 0 0 0 0 0 0 0 0 0 0 0 0 0
0 0 0 0 0 0 0 0 0 0 0 0 0 0 0 0 0 0 0 0 0 0 0 0 0 0 0 0 0 0 0 0 0 0 0 0 0 0 0 0 0 0 0
0 0 0 0 0 0 0 0 0 0 0 0 0 0 0 0 0 0 0 0 0 0 0 0 0 0 0 0 0 0 0 0 0 0 0 0 0 0 0 0 0 0 0
0 0 0 0 0 0 0 0 0 0 0 0 0 0 0 0 0 0 0 0 0 0 0 0 0 0 0 0 0 0 0 0 0 0 0 0 0 0 0 0 0 0 0
0 0 0 0 0 0 0 0 0 0 0 0 0 0 0 0 0 0 0 0 0 0 0 0 0 0 0 0 0 0 0 0 0 0 0 0 0 0 0 0 0 0 0
0 0 0 0 0 0 0 0 0 0 0 0 0 0 0 0 0 0 0 0 0 0 0 0 0 0 0 0 0 0 0 0 0 0 0 0 0 0 0 0 0 0 0
0 0 0 0 0 0 0 0 0 0 0 0 0 0 0 0 0 0 0 0 0 0 0 0 0 0 0 0 0 0 0 0 0 0 0 0 0 0 0 0 0 0 0
0 0 0 0 0 0 0 0 0 0 0 0 0 0 0 0 0 0 0 0 0 0 0 0 0 0 0 0 0 0 0 0 0 0 0 0 0 0 0 0 0 0 0
Wind_Speed_500mb
44 40 38 39 42 44 42 37 34 31 30 30 30 31 32 29 29 30 30 35 38 41 44 37 30 33 32 31 32 33 33 29 29 30 30 31 32 32 33 32 31 29 26
48 47 44 42 42 44 42 37 30 30 36 37 33 28 26 29 26 27 27 38 44 45 42 43 42 38 38 36 32 32 33 33 29 29 28 27 30 33 36 36 36 35 33
53 51 47 46 42 40 39 34 29 28 32 30 35 31 28 27 27 31 27 42 48 43 44 41 40 37 38 35 38 35 35 36 36 33 29 28 28 32 36 40 39 40 40
54 53 51 47 41 43 40 37 37 33 38 40 36 37 38 35 38 39 53 44 43 47 53 43 41 44 44 43 38 34 37 37 37 33 31 31 30 32 34 37 41 41 43
51 51 49 49 46 48 48 43 40 44 47 47 49 51 49 47 48 47 32 37 52 48 45 42 32 33 25 26 29 31 38 39 37 33 37 34 31 33 37 38 42 42 44
43 43 42 46 47 51 52 45 47 57 61 53 60 57 58 54 58 54 67 59 60 57 36 55 46 29 27 25 33 45 39 34 35 35 34 40 38 39 44 47 42 42 48
46 45 46 44 47 60 52 44 58 62 67 57 61 65 61 58 61 68 57 54 57 53 35 42 24 32 36 33 34 46 42 36 34 34 36 38 43 41 40 45 44 45 44
50 55 57 51 51 58 66 61 63 65 66 64 61 60 57 64 68 65 56 41 41 28 31 8 32 34 40 42 42 41 37 38 39 43 43 46 42 32 30 34 37 39 39
47 56 53 45 47 62 62 61 70 78 76 78 67 54 19 21 32 33 29 39 33 16 9 12 36 32 31 29 24 29 30 27 27 30 33 33 29 29 29 33 31 35 38
54 58 50 46 48 48 54 59 60 65 66 56 57 39 32 17 7 11 28 23 15 25 21 22 27 30 29 28 30 33 39 42 41 36 38 38 35 34 38 41 39 40 41
61 56 56 62 52 45 47 48 51 48 48 40 40 39 40 53 33 20 26 25 38 32 41 57 58 41 37 38 42 42 43 47 46 38 34 33 35 34 34 36 40 43 46
63 63 66 47 43 47 48 49 46 44 48 53 51 49 46 30 17 18 24 31 47 53 58 62 61 48 40 37 38 38 40 42 43 34 24 26 33 35 37 42 47 48 50
51 48 47 49 59 52 55 53 53 43 39 44 42 40 46 52 29 28 39 57 62 55 57 60 73 46 36 33 35 39 42 35 31 29 33 33 33 35 38 43 51 50 55
37 36 38 45 54 58 60 61 64 62 60 57 58 43 27 40 45 41 31 46 68 68 63 63 59 44 38 36 32 34 38 34 35 36 38 41 40 44 49 52 53 48 42
56 53 54 52 42 44 37 47 51 71 64 59 48 44 48 47 46 51 60 67 66 61 66 59 53 48 42 38 37 39 37 38 40 42 50 57 58 52 52 56 55 56 51
44 49 51 47 36 27 31 40 50 50 60 54 46 45 53 71 70 70 68 63 58 57 63 60 60 56 52 48 44 44 46 51 52 54 50 46 48 49 51 57 58 59 58
12 8 12 16 17 22 32 28 24 36 61 70 62 64 64 68 66 63 52 52 55 56 66 71 67 62 66 64 60 56 51 51 54 54 53 54 49 45 51 51 50 49 57
14 6 3 1 3 10 14 20 24 26 38 44 56 61 69 57 55 53 56 60 60 62 72 82 80 82 82 76 77 75 70 67 64 60 60 63 56 44 44 44 57 58 68
7 9 8 4 5 7 8 15 22 24 27 32 40 48 53 58 62 64 66 67 68 73 80 86 88 82 78 73 75 77 77 72 68 61 67 64 57 58 54 66 69 62 68
3 4 7 9 11 12 18 20 21 25 28 32 35 39 43 47 52 56 60 63 65 66 67 72 78 77 72 64 65 72 84 84 83 75 74 68 61 61 63 68 77 78 66
15 20 23 25 28 33 35 38 41 44 46 49 52 56 60 65 67 69 73 77 78 80 82 86 92 91 88 83 81 76 72 72 77 74 72 73 72 67 63 71 78 86 73
33 36 40 41 42 43 45 49 53 55 57 61 66 68 71 76 80 83 84 82 76 76 81 80 89 90 85 78 76 74 69 74 81 77 79 79 72 75 73 79 85 71 69
45 47 47 47 47 47 50 51 53 56 59 62 65 68 72 73 75 78 79 80 79 76 75 79 88 90 90 86 83 79 78 81 83 79 64 69 71 77 83 81 71 67 65
47 48 49 51 55 56 58 61 63 63 62 59 57 56 58 60 60 62 66 68 69 68 67 67 66 67 67 66 68 72 74 82 87 84 74 89 84 80 76 68 72 79 73
50 51 55 60 59 55 52 49 49 48 48 46 46 47 49 52 50 51 56 61 63 61 57 61 63 65 68 68 59 63 71 68 69 70 64 76 77 84 74 77 66 59 54
63 66 66 58 50 44 34 32 29 35 43 45 44 41 43 47 46 48 53 56 61 62 58 59 62 67 65 65 62 64 65 67 65 61 67 66 60 57 62 58 50 32 29
Wind_Direction_500mb
229 235 240 242 240 236 238 243 251 255 253 252 250 248 249 244 247 255 266 279 285 290 293 286 277 287 292 291 292 298 303 300 292 288 282 281 279 275 274 277 278 276 271
233 238 240 246 247 240 239 243 254 256 255 251 248 244 242 243 260 268 274 295 295 296 297 293 288 286 290 286 287 296 293 295 293 287 284 280 284 285 279 275 273 274 273
239 240 242 243 246 239 234 235 243 255 255 251 245 244 244 247 254 263 249 280 281 282 286 289 287 282 287 289 291 289 288 280 285 288 285 283 281 279 280 279 275 272 272
238 238 238 240 237 234 232 234 243 248 253 247 239 237 235 243 262 260 263 252 270 280 283 265 272 272 274 281 288 291 283 284 282 286 275 278 286 283 273 271 276 274 270
234 234 236 237 232 232 231 232 247 251 250 252 240 243 240 250 248 256 262 250 269 276 288 287 278 261 273 287 294 287 282 289 282 278 281 277 279 281 285 274 265 266 268
222 227 232 232 232 238 238 241 255 249 251 253 252 243 242 241 243 257 273 260 247 253 281 280 268 285 278 286 312 301 287 281 280 274 276 268 268 277 284 279 272 273 272
232 235 238 239 237 250 250 251 249 251 256 250 245 247 248 248 253 272 256 252 246 257 300 293 277 268 287 281 275 277 283 282 277 265 277 269 279 288 288 276 275 272 267
236 241 244 245 250 249 254 255 258 260 258 256 246 257 269 262 267 265 258 256 237 250 252 293 275 275 277 285 285 284 286 284 285 281 273 273 278 287 267 280 287 285 282
250 246 247 254 255 256 262 262 268 269 268 265 264 268 262 253 265 261 241 240 197 156 324 272 266 291 293 288 285 287 294 295 295 296 289 283 284 293 271 279 282 282 282
257 255 255 257 258 271 272 274 273 277 275 271 267 253 236 250 282 295 243 242 201 213 252 264 305 306 299 292 288 287 288 292 297 293 287 288 279 269 269 269 268 272 278
257 256 264 261 272 278 277 276 281 272 271 262 265 258 241 261 260 252 272 247 239 266 236 284 295 304 294 290 294 297 297 293 292 295 280 275 273 265 264 274 277 275 277
265 279 292 269 271 274 269 271 269 265 260 255 268 263 261 243 199 231 260 253 252 256 280 290 291 298 293 284 282 282 284 292 298 298 287 273 268 267 271 276 283 284 280
280 283 280 273 279 270 270 278 270 256 254 255 252 289 279 266 218 176 241 265 274 281 278 277 281 286 285 286 280 281 288 292 274 274 280 283 278 272 269 279 291 287 290
282 277 279 273 266 267 267 270 262 259 257 258 270 275 250 178 190 200 216 259 274 273 272 274 279 280 286 287 285 290 292 282 272 273 270 278 279 284 286 287 286 281 286
282 274 275 279 279 280 280 271 264 260 259 264 263 265 242 215 225 246 263 265 264 268 275 279 277 280 289 290 288 289 285 274 273 276 281 283 280 280 276 277 279 283 278
279 268 272 279 283 276 263 271 272 266 257 234 250 259 252 247 251 266 261 258 256 268 272 277 283 289 290 286 287 282 284 283 284 286 280 285 282 277 275 278 281 278 277
34 342 298 296 297 283 277 283 284 262 248 248 254 268 262 254 264 263 259 260 268 273 274 281 282 283 284 286 289 287 282 281 280 282 277 294 295 286 280 279 279 276 283
57 82 105 19 256 260 276 268 293 275 257 265 252 254 258 260 263 257 257 260 263 267 273 278 282 280 277 279 282 281 279 280 278 278 270 286 289 274 275 279 285 277 279
49 59 73 54 9 327 307 271 266 266 264 254 250 253 254 256 259 262 264 268 272 272 273 275 278 279 277 274 275 276 278 277 278 269 267 276 278 279 274 276 287 298 290
318 283 286 288 280 281 267 263 263 264 263 263 264 264 264 266 269 271 272 274 274 273 273 275 279 282 281 281 277 276 276 276 274 273 275 272 275 274 273 275 279 298 292
303 306 303 299 298 297 293 289 286 283 278 275 274 275 275 275 276 277 278 277 277 278 278 278 278 279 281 281 277 279 274 273 268 269 271 267 270 267 270 271 275 289 285
309 308 305 303 298 297 294 288 286 287 286 285 282 280 280 279 278 277 277 278 279 279 279 278 278 278 279 278 278 277 271 269 270 270 268 264 257 263 270 269 279 284 288
313 312 311 308 305 302 299 296 294 289 286 285 284 284 282 281 281 281 281 280 280 278 274 274 274 274 277 278 278 274 269 267 270 269 266 264 259 260 266 272 276 282 289
317 314 311 307 301 298 297 296 294 291 289 289 288 286 286 285 286 287 284 282 281 279 277 276 275 276 276 277 272 271 269 268 270 265 260 262 263 265 269 268 272 281 284
319 316 313 310 303 299 296 292 289 292 293 292 291 290 294 296 296 292 288 286 282 280 281 280 279 276 274 270 271 266 263 262 264 266 267 268 269 266 263 272 273 275 281
315 312 311 308 304 303 298 285 289 292 294 294 292 292 296 297 296 295 292 292 288 286 286 281 279 279 279 276 266 254 254 256 265 272 273 266 267 260 262 265 272 272 276
Wind_Speed_850mb
44 40 38 39 42 44 42 37 34 31 30 30 30 31 32 29 29 30 30 35 38 41 44 37 30 33 32 31 32 33 33 29 29 30 30 31 32 32 33 32 31 29 26
48 47 44 42 42 44 42 37 30 30 36 37 33 28 26 29 26 27 27 38 44 45 42 43 42 38 38 36 32 32 33 33 29 29 28 27 30 33 36 36 36 35 33
53 51 47 46 42 40 39 34 29 28 32 30 35 31 28 27 27 31 27 42 48 43 44 41 40 37 38 35 38 35 35 36 36 33 29 28 28 32 36 40 39 40 40
54 53 51 47 41 43 40 37 37 33 38 40 36 37 38 35 38 39 53 44 43 47 53 43 41 44 44 43 38 34 37 37 37 33 31 31 30 32 34 37 41 41 43
51 51 49 49 46 48 48 43 40 44 47 47 49 51 49 47 48 47 32 37 52 48 45 42 32 33 25 26 29 31 38 39 37 33 37 34 31 33 37 38 42 42 44
43 43 42 46 47 51 52 45 47 57 61 53 60 57 58 54 58 54 67 59 60 57 36 55 46 29 27 25 33 45 39 34 35 35 34 40 38 39 44 47 42 42 48
46 45 46 44 47 60 52 44 58 62 67 57 61 65 61 58 61 68 57 54 57 53 35 42 24 32 36 33 34 46 42 36 34 34 36 38 43 41 40 45 44 45 44
50 55 57 51 51 58 66 61 63 65 66 64 61 60 57 64 68 65 56 41 41 28 31 8 32 34 40 42 42 41 37 38 39 43 43 46 42 32 30 34 37 39 39
47 56 53 45 47 62 62 61 70 78 76 78 67 54 19 21 32 33 29 39 33 16 9 12 36 32 31 29 24 29 30 27 27 30 33 33 29 29 29 33 31 35 38
54 58 50 46 48 48 54 59 60 65 66 56 57 39 32 17 7 11 28 23 15 25 21 22 27 30 29 28 30 33 39 42 41 36 38 38 35 34 38 41 39 40 41
61 56 56 62 52 45 47 48 51 48 48 40 40 39 40 53 33 20 26 25 38 32 41 57 58 41 37 38 42 42 43 47 46 38 34 33 35 34 34 36 40 43 46
63 63 66 47 43 47 48 49 46 44 48 53 51 49 46 30 17 18 24 31 47 53 58 62 61 48 40 37 38 38 40 42 43 34 24 26 33 35 37 42 47 48 50
51 48 47 49 59 52 55 53 53 43 39 44 42 40 46 52 29 28 39 57 62 55 57 60 73 46 36 33 35 39 42 35 31 29 33 33 33 35 38 43 51 50 55
37 36 38 45 54 58 60 61 64 62 60 57 58 43 27 40 45 41 31 46 68 68 63 63 59 44 38 36 32 34 38 34 35 36 38 41 40 44 49 52 53 48 42
56 53 54 52 42 44 37 47 51 71 64 59 48 44 48 47 46 51 60 67 66 61 66 59 53 48 42 38 37 39 37 38 40 42 50 57 58 52 52 56 55 56 51
44 49 51 47 36 27 31 40 50 50 60 54 46 45 53 71 70 70 68 63 58 57 63 60 60 56 52 48 44 44 46 51 52 54 50 46 48 49 51 57 58 59 58
12 8 12 16 17 22 32 28 24 36 61 70 62 64 64 68 66 63 52 52 55 56 66 71 67 62 66 64 60 56 51 51 54 54 53 54 49 45 51 51 50 49 57
14 6 3 1 3 10 14 20 24 26 38 44 56 61 69 57 55 53 56 60 60 62 72 82 80 82 82 76 77 75 70 67 64 60 60 63 56 44 44 44 57 58 68
7 9 8 4 5 7 8 15 22 24 27 32 40 48 53 58 62 64 66 67 68 73 80 86 88 82 78 73 75 77 77 72 68 61 67 64 57 58 54 66 69 62 68
3 4 7 9 11 12 18 20 21 25 28 32 35 39 43 47 52 56 60 63 65 66 67 72 78 77 72 64 65 72 84 84 83 75 74 68 61 61 63 68 77 78 66
15 20 23 25 28 33 35 38 41 44 46 49 52 56 60 65 67 69 73 77 78 80 82 86 92 91 88 83 81 76 72 72 77 74 72 73 72 67 63 71 78 86 73
33 36 40 41 42 43 45 49 53 55 57 61 66 68 71 76 80 83 84 82 76 76 81 80 89 90 85 78 76 74 69 74 81 77 79 79 72 75 73 79 85 71 69
45 47 47 47 47 47 50 51 53 56 59 62 65 68 72 73 75 78 79 80 79 76 75 79 88 90 90 86 83 79 78 81 83 79 64 69 71 77 83 81 71 67 65
47 48 49 51 55 56 58 61 63 63 62 59 57 56 58 60 60 62 66 68 69 68 67 67 66 67 67 66 68 72 74 82 87 84 74 89 84 80 76 68 72 79 73
50 51 55 60 59 55 52 49 49 48 48 46 46 47 49 52 50 51 56 61 63 61 57 61 63 65 68 68 59 63 71 68 69 70 64 76 77 84 74 77 66 59 54
63 66 66 58 50 44 34 32 29 35 43 45 44 41 43 47 46 48 53 56 61 62 58 59 62 67 65 65 62 64 65 67 65 61 67 66 60 57 62 58 50 32 29
Wind_Direction_850mb
229 235 240 242 240 236 238 243 251 255 253 252 250 248 249 244 247 255 266 279 285 290 293 286 277 287 292 291 292 298 303 300 292 288 282 281 279 275 274 277 278 276 271
233 238 240 246 247 240 239 243 254 256 255 251 248 244 242 243 260 268 274 295 295 296 297 293 288 286 290 286 287 296 293 295 293 287 284 280 284 285 279 275 273 274 273
239 240 242 243 246 239 234 235 243 255 255 251 245 244 244 247 254 263 249 280 281 282 286 289 287 282 287 289 291 289 288 280 285 288 285 283 281 279 280 279 275 272 272
238 238 238 240 237 234 232 234 243 248 253 247 239 237 235 243 262 260 263 252 270 280 283 265 272 272 274 281 288 291 283 284 282 286 275 278 286 283 273 271 276 274 270
234 234 236 237 232 232 231 232 247 251 250 252 240 243 240 250 248 256 262 250 269 276 288 287 278 261 273 287 294 287 282 289 282 278 281 277 279 281 285 274 265 266 268
222 227 232 232 232 238 238 241 255 249 251 253 252 243 242 241 243 257 273 260 247 253 281 280 268 285 278 286 312 301 287 281 280 274 276 268 268 277 284 279 272 273 272
232 235 238 239 237 250 250 251 249 251 256 250 245 247 248 248 253 272 256 252 246 257 300 293 277 268 287 281 275 277 283 282 277 265 277 269 279 288 288 276 275 272 267
236 241 244 245 250 249 254 255 258 260 258 256 246 257 269 262 267 265 258 256 237 250 252 293 275 275 277 285 285 284 286 284 285 281 273 273 278 287 267 280 287 285 282
250 246 247 254 255 256 262 262 268 269 268 265 264 268 262 253 265 261 241 240 197 156 324 272 266 291 293 288 285 287 294 295 295 296 289 283 284 293 271 279 282 282 282
257 255 255 257 258 271 272 274 273 277 275 271 267 253 236 250 282 295 243 242 201 213 252 264 305 306 299 292 288 287 288 292 297 293 287 288 279 269 269 269 268 272 278
257 256 264 261 272 278 277 276 281 272 271 262 265 258 241 261 260 252 272 247 239 266 236 284 295 304 294 290 294 297 297 293 292 295 280 275 273 265 264 274 277 275 277
265 279 292 269 271 274 269 271 269 265 260 255 268 263 261 243 199 231 260 253 252 256 280 290 291 298 293 284 282 282 284 292 298 298 287 273 268 267 271 276 283 284 280
280 283 280 273 279 270 270 278 270 256 254 255 252 289 279 266 218 176 241 265 274 281 278 277 281 286 285 286 280 281 288 292 274 274 280 283 278 272 269 279 291 287 290
282 277 279 273 266 267 267 270 262 259 257 258 270 275 250 178 190 200 216 259 274 273 272 274 279 280 286 287 285 290 292 282 272 273 270 278 279 284 286 287 286 281 286
282 274 275 279 279 280 280 271 264 260 259 264 263 265 242 215 225 246 263 265 264 268 275 279 277 280 289 290 288 289 285 274 273 276 281 283 280 280 276 277 279 283 278
279 268 272 279 283 276 263 271 272 266 257 234 250 259 252 247 251 266 261 258 256 268 272 277 283 289 290 286 287 282 284 283 284 286 280 285 282 277 275 278 281 278 277
34 342 298 296 297 283 277 283 284 262 248 248 254 268 262 254 264 263 259 260 268 273 274 281 282 283 284 286 289 287 282 281 280 282 277 294 295 286 280 279 279 276 283
57 82 105 19 256 260 276 268 293 275 257 265 252 254 258 260 263 257 257 260 263 267 273 278 282 280 277 279 282 281 279 280 278 278 270 286 289 274 275 279 285 277 279
49 59 73 54 9 327 307 271 266 266 264 254 250 253 254 256 259 262 264 268 272 272 273 275 278 279 277 274 275 276 278 277 278 269 267 276 278 279 274 276 287 298 290
318 283 286 288 280 281 267 263 263 264 263 263 264 264 264 266 269 271 272 274 274 273 273 275 279 282 281 281 277 276 276 276 274 273 275 272 275 274 273 275 279 298 292
303 306 303 299 298 297 293 289 286 283 278 275 274 275 275 275 276 277 278 277 277 278 278 278 278 279 281 281 277 279 274 273 268 269 271 267 270 267 270 271 275 289 285
309 308 305 303 298 297 294 288 286 287 286 285 282 280 280 279 278 277 277 278 279 279 279 278 278 278 279 278 278 277 271 269 270 270 268 264 257 263 270 269 279 284 288
313 312 311 308 305 302 299 296 294 289 286 285 284 284 282 281 281 281 281 280 280 278 274 274 274 274 277 278 278 274 269 267 270 269 266 264 259 260 266 272 276 282 289
317 314 311 307 301 298 297 296 294 291 289 289 288 286 286 285 286 287 284 282 281 279 277 276 275 276 276 277 272 271 269 268 270 265 260 262 263 265 269 268 272 281 284
319 316 313 310 303 299 296 292 289 292 293 292 291 290 294 296 296 292 288 286 282 280 281 280 279 276 274 270 271 266 263 262 264 266 267 268 269 266 263 272 273 275 281
315 312 311 308 304 303 298 285 289 292 294 294 292 292 296 297 296 295 292 292 288 286 286 281 279 279 279 276 266 254 254 256 265 272 273 266 267 260 262 265 272 272 276